Location: Sternwarte auf dem Internationalen Platz Vogelsang IP
(50.5721°N, 6.4398°E)
Time: 10:52:00
(UTC+01:00)

A-11 Canister half - Pass Details

Date: 13 December 2025
Orbit: 1511 x 1688 km, 47.2° (Epoch: 15 January)

Event Time Altitude Azimuth Distance (km) Brightness Sun altitude
Rises 19:23:13 0° 274° (W) 4,715 12.9 -26.2°
Reaches altitude 10° 19:26:15 10° 272° (W) 3,751 12.0 -26.7°
Maximum altitude 19:35:42 70° 191° (SSW) 1,688 9.1 -28.2°
Enters shadow 19:39:07 45° 125° (SE) 2,100 9.3 -28.7°
Drops below altitude 10° 19:45:31 10° 111° (ESE) 3,888 - -29.8°
Sets 19:48:43 0° 109° (ESE) 4,893 - -30.3°
